GEFSNGP_500_meanwind_276.txt.gz
Wind_Speed
27 26 26 26 26 27 26 26 25 24 24 21 21 19 17 16 15 14 14 13 13 13 13 13 13 13 13 13 12 12 13 13 14 14 14 14 15 15 15 15 15 16 16 16
28 28 27 27 27 27 27 27 25 25 23 22 22 20 19 18 18 17 15 15 16 15 14 14 14 15 14 14 14 14 14 15 15 15 15 15 15 16 16 16 16 17 17 18
29 29 29 29 28 28 27 27 27 25 24 23 23 22 20 20 20 19 18 17 17 16 16 16 16 16 16 16 16 16 16 16 16 16 16 16 16 17 17 17 18 18 18 19
29 30 32 30 30 30 29 29 28 27 25 25 25 24 23 21 21 20 20 19 18 18 19 19 19 18 18 18 17 17 17 17 17 17 17 17 18 18 18 19 19 20 21 22
32 32 32 32 31 31 31 30 29 29 27 26 25 25 24 22 21 21 21 22 21 20 20 20 21 21 20 20 19 19 18 18 18 19 19 19 19 20 20 20 21 22 23 23
34 34 33 32 31 32 32 32 31 30 28 27 26 26 24 23 23 22 22 22 22 22 21 21 21 21 22 20 21 21 21 20 20 20 20 20 21 21 22 22 23 23 24 24
35 35 34 33 31 32 32 31 31 31 29 29 27 26 25 26 25 24 24 24 25 25 24 23 23 22 22 21 21 21 22 22 22 22 22 22 23 24 24 24 25 25 24 25
36 36 34 33 32 33 32 32 32 31 30 30 29 27 27 27 27 27 26 26 27 26 26 25 25 24 23 23 23 23 23 23 23 23 23 23 24 25 26 26 26 26 26 26
37 36 35 34 33 33 33 33 33 32 32 31 31 30 29 29 28 27 27 28 27 27 27 27 26 25 25 24 25 25 25 24 24 25 24 25 26 26 26 27 27 27 27 27
38 36 35 35 34 34 34 34 34 34 34 34 33 33 32 31 30 29 29 28 28 28 29 29 28 27 26 26 26 27 26 25 26 26 26 27 26 26 27 27 27 28 27 27
38 37 36 37 36 36 35 34 35 35 35 34 34 34 33 31 30 30 30 29 29 28 28 28 26 26 28 28 28 28 27 26 27 27 27 28 27 27 28 28 28 28 28 28
38 39 39 37 36 36 36 35 35 34 34 34 34 34 34 33 32 31 30 29 29 28 28 28 27 27 28 28 29 29 28 28 28 28 28 29 28 28 28 29 29 29 28 28
37 38 38 38 37 37 35 35 35 34 34 34 34 33 33 33 33 32 30 30 30 29 29 29 29 28 27 27 28 29 29 29 28 28 29 29 29 29 29 29 30 30 30 30
36 37 38 38 37 37 36 35 35 35 34 35 35 34 34 33 33 32 31 31 31 31 31 30 29 29 29 29 29 30 30 29 29 29 29 29 30 30 30 31 31 31 31 31
34 35 37 37 37 37 36 36 36 35 34 35 35 34 33 33 32 32 32 32 32 33 32 32 31 30 30 31 31 31 31 31 30 30 30 30 30 30 31 31 31 31 31 31
33 34 35 35 35 35 36 37 36 36 36 37 36 35 34 33 32 32 32 32 32 32 32 32 32 31 31 32 32 32 32 32 32 31 31 30 30 30 30 31 30 30 30 30
31 32 33 33 34 35 35 36 36 36 36 36 36 35 35 34 32 32 32 31 31 31 32 32 32 32 32 32 32 32 32 32 32 32 32 31 31 31 31 31 31 30 30 30
29 29 31 32 34 34 34 34 34 34 34 34 33 34 35 34 32 31 31 30 30 31 32 32 32 32 33 33 32 32 32 32 32 32 32 32 32 31 31 32 32 32 31 31
27 28 29 30 32 32 32 32 33 33 33 34 33 32 32 32 32 32 31 31 31 32 33 33 34 34 34 33 32 32 32 32 32 33 33 32 32 32 32 32 32 32 32 32
26 26 27 29 30 31 31 31 31 32 32 32 32 31 31 31 32 33 33 32 32 32 32 33 33 33 33 32 31 31 32 32 32 33 33 33 33 32 32 31 32 32 32 32
24 25 26 28 29 30 30 29 30 30 31 31 31 30 30 30 31 31 32 32 32 32 32 32 32 32 32 31 31 31 31 31 31 31 32 32 33 32 31 31 31 32 32 32
21 21 22 24 25 26 26 27 28 29 29 30 30 29 29 29 30 31 31 30 31 32 32 32 31 31 31 31 31 30 30 30 29 30 30 30 30 29 29 30 30 31 31 32
17 17 19 20 22 22 23 25 25 26 27 27 27 27 27 28 28 30 30 30 30 30 30 30 29 29 28 29 29 29 28 28 28 28 28 28 28 28 29 30 30 30 31 31
15 15 17 18 20 20 21 21 23 24 24 23 24 24 25 26 26 28 29 29 27 26 26 26 25 25 25 25 25 25 26 26 26 26 26 26 26 27 27 28 28 29 29 28
12 13 14 16 16 18 18 18 19 20 20 20 21 21 22 23 23 24 25 25 24 23 23 22 22 23 23 23 23 23 23 24 23 23 24 24 25 25 26 26 26 26 26 27
10 11 12 12 12 14 15 15 16 17 19 19 19 19 19 19 20 20 19 19 19 19 19 19 21 21 21 21 21 21 22 22 22 22 23 23 23 23 23 24 24 24 25 26
8 8 9 9 10 11 12 13 14 15 16 16 17 17 18 17 16 16 16 16 17 17 17 17 17 17 18 18 19 19 20 20 20 20 20 21 22 22 23 23 24 24 24 24

GEFSNGP_500_meanwind_282.txt.gz
Wind_Speed
26 26 25 25 25 24 23 22 20 19 20 20 19 17 17 17 17 16 16 15 15 14 14 14 14 14 14 14 14 14 14 14 14 13 13 12 13 13 14 16 16 17 17 18
27 27 27 26 26 25 25 24 22 21 21 21 20 18 18 18 17 17 16 16 16 16 16 16 15 16 15 15 16 16 16 16 16 15 14 14 15 15 16 17 18 18 19 19
27 27 26 27 26 26 26 25 23 23 22 21 20 20 19 19 19 18 18 17 17 17 17 17 17 17 17 17 18 18 17 17 17 17 17 16 17 17 18 19 19 19 20 20
27 27 28 27 26 26 26 25 25 26 25 23 22 21 20 20 20 20 19 19 19 19 18 19 19 18 18 18 18 18 18 18 18 18 18 19 19 19 20 20 20 20 20 21
28 28 27 28 27 25 25 25 26 26 26 25 24 23 23 22 21 21 20 20 20 20 20 21 20 20 20 20 19 20 19 19 19 20 20 21 21 21 21 20 21 21 22 22
30 29 28 28 27 26 26 27 26 27 26 26 25 25 24 23 22 22 22 22 22 22 22 23 23 22 22 22 21 21 21 21 21 21 22 22 21 21 21 22 22 23 24 24
31 31 30 30 28 27 28 28 27 27 27 27 26 26 25 24 24 24 24 24 24 24 24 25 25 24 23 23 22 22 22 23 23 23 23 23 23 23 23 23 24 24 25 26
32 31 31 30 28 29 29 29 28 28 28 27 27 27 27 26 26 26 26 27 26 26 26 26 26 26 26 25 24 24 24 24 24 25 25 24 24 24 24 24 25 25 26 26
34 34 32 31 29 28 28 28 29 28 28 28 28 28 29 29 28 28 28 28 28 28 29 29 28 28 27 26 26 25 25 25 25 25 26 25 25 25 25 26 26 27 27 27
35 34 33 32 31 30 30 29 29 29 28 29 30 30 31 31 30 29 29 29 29 29 30 31 30 29 29 28 27 27 26 26 26 26 26 26 27 26 26 26 27 27 28 28
35 35 34 33 33 32 31 30 29 29 29 29 29 30 30 30 30 30 30 30 30 29 29 29 29 29 29 28 28 28 27 26 26 26 26 26 27 27 27 28 28 29 29 29
35 35 35 34 34 33 33 32 31 31 31 30 30 31 31 31 31 31 31 30 30 30 30 30 30 30 30 30 29 29 28 27 27 27 27 27 28 29 29 29 29 30 29 29
34 34 34 34 34 34 34 34 33 33 33 32 32 32 32 32 32 31 31 31 31 31 31 30 30 30 31 31 30 29 28 28 28 28 28 28 29 30 29 30 30 30 30 31
34 34 34 34 34 34 34 34 34 35 35 35 34 33 33 33 32 32 32 32 32 32 31 31 31 31 31 31 31 31 30 30 30 29 29 30 30 31 31 31 32 31 31 31
33 34 34 34 34 34 34 34 34 34 35 36 35 34 33 33 32 32 32 32 32 32 32 32 32 33 32 32 33 32 32 31 31 31 31 31 31 32 32 32 33 32 31 31
31 32 31 32 33 33 34 34 34 34 34 34 34 33 33 33 33 32 32 32 32 32 33 33 33 33 33 33 33 33 33 33 32 32 32 32 32 33 33 33 33 32 32 31
30 30 30 30 30 31 32 33 33 33 33 33 33 33 33 33 33 33 33 33 33 33 34 34 33 33 33 33 32 33 33 33 32 32 32 32 33 34 34 34 33 32 32 31
29 29 29 29 29 29 30 31 32 32 32 32 33 33 32 32 32 33 34 34 34 34 34 34 33 33 34 34 33 33 32 32 32 32 32 32 33 34 34 34 34 32 32 32
25 27 27 27 28 28 29 30 31 32 32 33 33 33 32 32 32 33 34 34 35 35 35 35 34 34 33 33 33 32 31 32 32 32 32 33 33 33 33 33 32 31 31 31
22 24 25 26 26 28 29 30 30 31 32 32 32 32 32 32 32 32 32 33 34 34 33 33 33 32 32 31 31 31 31 31 31 31 32 32 32 32 31 31 31 30 30 31
22 22 23 25 26 27 28 28 29 30 30 30 30 30 31 31 31 31 31 31 31 30 31 31 31 30 31 30 30 30 29 29 30 30 30 30 30 31 30 29 28 29 28 28
22 23 23 24 25 25 26 27 27 27 27 28 29 29 29 28 29 30 29 28 28 29 28 29 28 28 29 28 28 28 28 28 29 29 29 29 29 28 26 25 25 26 26 26
20 21 22 22 23 23 24 24 25 26 26 26 27 27 26 27 27 28 28 28 28 28 27 27 27 26 26 26 26 26 26 27 27 27 27 27 26 25 24 24 24 24 25 26
18 18 18 18 19 21 23 23 23 24 24 24 24 24 25 26 26 26 26 26 27 27 27 26 25 25 24 24 24 25 26 26 26 26 26 24 24 24 23 23 24 25 25 25
14 15 16 16 17 19 19 20 21 22 22 22 23 23 24 24 25 25 25 25 25 25 25 25 24 24 23 23 23 23 23 24 24 24 23 23 23 23 23 23 23 23 23 23
14 14 14 14 14 15 16 17 18 19 21 21 21 22 22 23 23 23 22 22 22 22 22 22 23 22 21 21 21 21 22 22 23 23 23 23 22 22 22 22 22 22 22 23
12 12 13 13 13 14 15 16 16 17 18 19 20 20 20 20 20 20 19 20 20 20 19 19 19 20 20 20 20 20 20 21 21 21 21 21 21 21 21 21 22 22 22 23

GEFSNGP_500_meanwind_288.txt.gz
Wind_Speed
25 21 20 18 17 19 20 19 19 18 19 17 18 20 20 20 19 19 18 18 18 18 18 17 16 16 15 15 15 14 15 15 16 17 17 17 17 18 18 19 19 19 19 19
26 23 22 21 19 19 20 20 21 21 20 20 22 23 22 21 21 20 20 19 19 19 19 18 18 17 17 17 16 17 17 17 17 18 18 18 19 19 20 20 20 20 20 20
27 24 24 24 21 21 22 24 24 24 23 23 24 25 25 24 23 22 21 21 21 21 21 20 20 19 18 18 18 18 18 19 19 19 19 20 20 21 21 21 21 21 21 21
28 26 27 25 24 23 23 25 25 26 26 24 25 26 26 25 25 24 23 23 23 22 22 22 21 21 21 20 20 20 20 20 21 21 21 21 21 22 22 22 22 23 23 22
29 27 27 26 25 23 24 25 25 25 26 26 26 28 27 27 26 26 24 24 24 23 23 23 23 22 22 22 22 22 22 22 22 22 22 21 22 22 23 23 23 24 23 24
29 28 27 27 26 25 25 26 27 27 28 28 27 27 28 28 27 27 27 26 26 25 24 24 24 24 23 23 23 22 22 23 22 22 23 23 23 23 24 24 24 25 24 25
30 29 29 28 27 26 27 28 28 29 29 28 29 28 29 28 28 28 27 27 27 27 26 26 25 25 25 24 24 24 23 23 22 22 23 23 23 24 25 25 25 25 25 25
32 31 31 30 28 28 29 29 29 29 29 29 29 29 29 29 29 29 27 27 27 27 27 28 28 28 27 26 25 24 24 24 24 24 25 25 24 25 26 26 26 26 27 27
32 32 32 32 31 30 30 32 32 31 30 29 30 30 30 30 30 30 29 29 28 28 29 29 29 28 28 26 26 26 26 26 26 26 27 26 26 27 27 27 28 28 28 28
34 34 35 34 33 33 33 33 33 32 32 31 31 30 31 31 31 31 31 31 30 30 30 29 29 28 27 28 28 27 27 28 28 28 29 29 29 29 29 29 29 29 29 29
35 34 34 35 35 35 34 33 33 33 33 32 32 32 31 31 31 31 31 31 31 30 30 30 29 28 28 28 28 29 29 30 30 31 31 31 30 30 30 30 31 31 31 31
35 35 36 36 36 36 36 35 34 34 34 33 32 32 33 32 31 31 31 31 30 30 30 29 29 29 29 30 30 30 30 31 32 32 32 31 30 30 30 31 32 32 32 32
37 37 36 36 36 37 37 36 36 36 35 34 34 34 33 33 32 31 31 31 31 30 30 30 30 30 30 30 31 31 31 31 32 33 32 31 31 31 31 31 32 32 32 32
36 36 36 36 36 37 37 37 37 37 36 36 35 35 34 33 32 32 32 32 31 30 31 31 31 31 30 31 32 32 32 32 33 33 33 32 32 31 31 31 31 31 31 32
35 36 36 36 36 36 37 37 37 37 37 36 35 34 33 33 33 33 33 33 33 32 32 32 32 32 32 33 33 33 34 34 33 33 33 33 32 32 31 31 31 31 32 32
34 34 34 35 36 35 36 35 35 36 36 35 34 33 33 33 33 33 33 33 33 33 33 33 33 33 34 34 34 35 35 34 34 34 34 33 32 32 31 31 31 32 32 32
32 32 32 33 34 34 34 34 34 34 34 34 34 34 34 33 33 34 34 34 34 34 33 33 33 34 35 35 35 35 35 35 35 35 34 33 33 32 31 31 31 31 31 31
30 30 31 31 32 33 33 33 33 33 33 33 33 34 34 34 33 34 34 34 35 35 35 35 35 35 35 36 35 35 35 35 34 33 33 32 33 32 32 31 30 30 30 29
28 28 29 30 30 31 31 31 32 33 33 33 33 34 34 33 33 33 33 34 35 35 35 35 35 36 36 36 36 35 34 34 33 32 31 30 31 32 31 30 29 29 29 28
26 27 28 29 29 30 31 31 32 33 33 33 33 33 33 34 33 33 33 34 34 34 34 35 35 35 36 36 35 35 33 32 32 31 30 29 30 29 28 28 28 28 27 27
25 26 27 27 28 29 29 30 30 31 32 33 32 32 32 33 33 33 32 33 33 33 33 33 33 33 33 33 33 33 32 31 30 29 28 28 28 27 27 27 27 27 27 28
24 25 25 26 27 28 28 28 28 28 28 30 30 31 31 31 32 31 31 31 31 31 32 31 31 31 31 31 31 30 29 29 28 27 27 27 27 27 27 27 27 28 27 28
22 23 24 24 24 25 26 27 27 28 28 29 29 30 30 30 30 30 30 29 30 30 30 30 30 29 29 29 28 28 27 27 27 26 27 27 28 27 25 26 27 26 25 26
21 21 22 22 23 22 23 24 25 27 27 28 28 28 29 29 29 29 29 28 28 28 28 27 26 26 27 27 27 26 27 27 26 26 27 28 27 26 25 25 25 25 25 25
19 19 20 20 21 22 23 24 25 26 26 27 26 26 27 27 27 27 27 26 26 26 26 25 24 24 24 25 25 25 25 25 25 26 26 26 25 25 24 24 25 24 25 25
17 17 17 18 19 20 21 22 23 23 23 24 24 24 23 23 24 25 25 24 25 24 24 24 24 24 24 24 24 24 23 23 24 25 25 24 23 23 24 24 24 24 24 25
14 15 16 16 16 17 18 19 19 20 21 20 21 22 22 22 22 22 22 22 23 22 22 22 23 23 23 23 22 23 23 23 23 23 23 23 23 22 23 23 24 24 25 25

GEFSNGP_500_meanwind_294.txt.gz
Wind_Speed
23 23 24 23 22 22 22 22 21 19 18 17 16 17 16 15 15 14 14 14 14 14 13 12 13 14 15 14 14 14 14 14 15 15 15 16 15 15 15 15 16 16 16 17
26 26 25 24 24 24 24 23 22 21 19 18 18 19 19 18 17 16 15 15 15 15 14 14 15 16 16 16 16 16 16 16 16 16 17 17 16 17 17 17 17 17 17 17
28 27 27 26 24 25 24 24 24 22 20 20 21 21 20 19 18 17 17 18 18 17 17 17 17 17 18 17 17 17 17 18 18 18 18 17 17 18 18 18 18 19 18 18
29 28 29 27 25 26 27 27 26 25 23 22 22 22 22 21 21 20 19 19 19 20 20 21 20 19 18 19 19 18 18 19 20 19 18 18 19 19 19 20 20 20 19 20
30 30 29 27 27 26 27 27 27 27 26 24 24 23 23 23 23 22 21 21 21 22 22 22 22 20 20 20 20 20 20 20 20 20 20 20 20 20 21 22 21 21 21 22
31 31 31 28 27 27 28 28 28 27 26 26 26 26 25 25 25 25 24 23 22 23 23 23 24 23 22 22 22 21 21 21 22 21 21 21 21 22 23 23 23 22 23 24
31 32 32 29 28 27 28 28 27 27 27 27 28 28 28 27 27 26 25 25 24 24 24 25 24 24 24 23 23 23 23 23 23 23 23 23 23 23 24 25 24 24 25 25
31 32 31 29 29 28 28 29 28 28 28 28 28 28 28 28 28 27 26 26 26 26 26 26 26 26 26 26 25 26 25 25 25 25 25 24 24 25 25 26 26 26 26 26
33 32 31 30 29 29 30 31 30 30 29 29 29 29 28 28 27 27 27 27 27 26 27 27 27 28 28 28 28 28 27 26 27 26 26 26 26 26 27 27 27 27 28 28
33 33 33 32 31 31 31 30 29 28 29 31 31 31 29 28 28 28 28 28 28 28 28 29 29 29 29 29 29 29 28 28 28 27 27 27 28 29 29 28 29 29 29 29
33 33 34 34 34 34 33 32 32 32 31 30 31 31 31 31 30 29 29 30 30 30 30 30 30 30 30 30 30 29 29 29 28 29 28 29 29 30 30 30 30 30 29 29
33 33 33 34 34 34 35 34 34 34 33 33 31 30 31 31 31 31 31 31 32 31 31 31 31 31 31 30 30 30 29 29 29 29 29 30 30 31 31 31 31 30 30 29
34 35 34 34 34 34 35 35 35 34 33 33 32 31 31 31 32 32 32 32 33 32 32 32 32 31 31 30 31 31 31 30 30 30 30 31 32 31 31 31 31 30 29 28
35 35 34 34 34 34 33 34 34 35 34 34 33 32 32 32 32 32 32 32 32 33 32 32 32 31 31 31 31 32 32 32 32 31 32 32 32 32 31 31 31 31 30 29
34 34 34 33 33 33 32 32 33 33 33 34 33 33 33 33 33 33 33 33 32 32 32 32 32 32 32 32 32 32 33 33 33 34 33 33 33 33 32 31 30 30 29 28
32 33 32 33 33 33 33 34 34 34 34 34 34 34 34 34 34 34 34 33 33 32 32 32 32 32 32 32 32 33 33 34 34 34 34 33 33 33 32 31 30 29 28 27
30 30 31 32 32 33 33 33 34 34 34 34 34 34 34 34 34 34 34 34 33 33 32 32 32 32 32 32 32 32 33 34 34 33 33 33 33 33 31 31 30 28 28 27
29 29 30 31 32 32 32 33 34 35 35 35 35 34 34 34 34 33 33 33 32 32 33 32 32 32 32 32 32 33 33 33 32 32 32 32 32 32 30 29 28 28 27 28
26 27 28 29 30 29 30 31 32 33 33 34 34 34 34 34 33 32 33 33 33 32 32 32 33 33 33 33 33 32 32 32 31 30 30 30 30 29 29 27 27 27 27 27
25 26 27 27 27 28 29 29 30 31 32 33 33 33 33 34 33 33 33 33 32 32 32 32 32 33 32 32 32 32 31 30 29 28 28 28 28 28 28 27 26 26 26 26
23 24 24 25 26 27 28 29 29 30 31 32 32 32 33 32 33 34 34 33 32 32 32 32 32 32 32 31 31 31 30 29 28 27 27 27 27 28 28 27 26 25 25 25
21 22 23 24 24 24 26 27 28 28 28 29 29 30 30 31 32 32 32 32 32 31 31 31 31 31 31 30 30 30 29 28 27 26 27 27 27 26 26 26 26 26 25 25
21 21 21 21 22 23 23 24 25 26 27 27 27 28 28 29 29 29 29 29 30 30 30 30 30 29 29 28 27 27 27 27 26 26 26 26 26 25 25 25 25 24 24 24
21 21 21 21 21 22 22 22 23 23 24 24 25 26 27 27 27 28 27 27 27 28 29 28 28 27 27 27 26 25 25 25 25 25 25 25 24 24 24 24 24 25 24 24
18 19 19 20 21 20 21 21 21 21 22 22 22 23 24 24 25 25 25 25 26 26 26 26 26 27 27 25 24 23 23 23 23 23 22 22 22 23 23 24 24 24 24 24
15 15 16 16 17 18 18 18 18 18 19 20 20 20 21 21 22 23 23 23 23 23 23 24 25 25 25 24 22 21 21 21 21 21 21 21 21 22 22 22 22 23 23 25
13 14 14 14 14 15 16 16 16 16 16 17 17 18 19 19 19 20 21 21 21 22 22 22 22 22 21 21 21 21 21 21 21 22 22 22 22 22 22 23 23 23 24 25

GEFSNGP_500_meanwind_300.txt.gz
Wind_Speed
25 25 25 25 24 23 23 23 23 21 20 20 20 19 18 17 16 15 14 15 15 14 14 14 14 13 13 14 13 13 14 15 16 16 16 16 17 18 18 18 19 19 19 19
26 26 27 27 26 26 24 23 23 23 22 21 21 20 19 18 18 17 17 16 16 14 14 14 15 15 15 15 15 15 16 16 17 17 18 18 18 19 19 20 20 20 19 20
28 28 28 28 27 26 26 25 24 24 23 22 22 21 21 19 19 18 18 17 17 16 16 17 17 17 17 17 17 17 18 18 18 19 19 19 20 20 21 21 21 21 22 22
29 29 29 27 27 27 26 26 25 25 25 24 23 23 23 22 21 20 19 19 18 19 19 19 20 19 19 19 19 19 19 20 20 20 21 21 22 22 23 23 23 23 23 23
30 30 29 28 28 28 28 26 26 26 25 24 24 24 24 24 23 23 22 22 21 21 21 21 22 22 21 21 22 21 21 22 23 22 22 22 23 23 24 24 24 24 25 25
31 31 31 29 29 29 29 28 27 26 26 25 25 25 24 24 25 25 24 24 24 23 22 22 23 23 23 23 23 22 23 23 24 25 24 24 24 25 25 26 26 26 26 26
31 31 31 30 30 29 30 30 29 28 28 27 26 26 26 26 26 27 27 26 26 25 25 24 25 25 25 25 24 24 24 25 25 26 26 26 26 25 25 26 26 27 27 27
32 31 30 30 30 30 31 31 30 30 29 29 28 27 27 28 28 28 28 28 28 28 28 28 27 26 26 27 27 27 27 27 27 27 28 29 28 27 27 27 28 28 29 29
33 32 31 31 31 30 31 31 31 30 29 29 29 29 28 28 28 29 29 29 29 30 30 30 30 28 28 29 29 29 28 28 29 29 30 29 29 29 29 29 30 30 31 31
33 33 33 32 31 31 31 31 31 30 30 30 29 29 30 30 29 29 30 30 31 31 32 32 31 30 30 29 29 29 30 30 31 31 31 31 32 32 32 32 32 31 32 32
34 33 34 33 33 32 32 32 31 31 31 30 30 29 29 29 29 30 30 30 30 32 33 33 32 31 30 30 30 31 31 32 32 33 33 33 33 33 34 34 34 34 33 33
33 34 34 34 34 34 33 32 32 32 31 30 30 29 29 29 29 29 30 30 31 31 32 33 33 32 31 31 30 31 32 32 32 33 34 35 34 35 35 35 35 34 34 33
34 34 34 34 34 34 33 32 32 33 32 30 30 29 30 30 29 30 30 31 31 31 32 32 33 33 32 31 31 32 32 33 33 33 34 35 36 36 35 35 35 34 33 32
33 33 33 32 32 32 33 32 32 32 32 32 32 32 32 32 32 31 31 31 31 32 32 32 32 32 32 32 32 32 33 33 34 34 35 35 35 35 35 34 34 33 33 32
32 32 31 31 32 32 31 31 32 32 33 33 33 33 33 33 33 33 32 32 31 32 32 32 32 32 32 32 32 33 33 34 34 35 35 35 35 35 34 34 34 32 31 30
30 30 30 31 32 32 31 31 32 33 33 33 34 34 34 34 35 34 33 33 32 32 32 32 33 33 34 34 34 34 34 34 34 35 35 36 36 35 34 33 31 29 29 29
30 30 30 30 30 31 32 32 33 34 34 33 33 34 34 34 34 33 33 33 33 33 33 33 34 33 34 34 34 34 34 34 34 35 35 35 35 34 33 31 30 28 27 27
30 30 30 30 30 30 32 33 33 33 34 34 33 33 34 33 33 33 34 34 34 35 35 35 35 35 35 35 35 35 35 35 35 34 34 34 34 32 31 30 29 28 27 26
29 30 31 31 31 31 30 31 32 32 33 33 34 34 34 33 32 33 33 34 34 34 34 34 35 35 35 36 36 35 35 35 34 34 33 33 32 30 30 30 29 28 27 26
28 29 30 31 31 31 31 30 31 31 32 32 33 33 33 33 32 33 33 32 33 33 33 34 34 34 35 35 34 34 34 33 33 32 32 31 30 29 29 29 28 27 26 26
26 26 27 28 29 30 30 30 30 30 31 31 31 32 33 33 33 33 33 33 33 33 33 33 33 34 34 33 33 32 32 32 31 31 31 30 30 29 28 27 27 26 26 26
23 23 24 25 25 26 27 28 28 28 29 29 31 31 31 32 33 33 34 34 34 33 33 33 32 33 33 33 32 32 31 31 31 30 30 29 28 28 27 27 25 24 25 25
20 20 21 22 22 23 24 25 25 26 27 28 28 28 28 29 30 32 32 33 32 31 31 31 31 32 32 32 31 31 30 30 30 29 28 27 27 27 27 26 25 25 25 25
19 20 20 21 22 22 22 22 23 23 24 25 25 25 26 27 27 28 29 29 29 28 28 29 30 30 30 30 29 29 28 28 27 27 26 26 25 25 25 25 25 25 25 25
19 19 20 19 19 20 20 21 21 22 23 24 24 24 24 24 25 25 25 26 26 26 26 27 27 27 27 26 27 27 27 26 25 25 24 23 24 24 24 24 24 24 24 24
18 19 19 19 19 18 19 19 20 20 21 21 21 22 22 22 23 23 23 23 22 22 23 23 23 23 23 24 25 25 25 25 24 24 23 23 23 23 23 23 23 23 23 23
16 16 15 15 16 17 17 18 19 19 20 20 19 19 20 20 20 21 21 21 21 21 21 22 22 21 21 22 22 22 22 23 23 23 22 22 23 22 22 22 23 23 23 23

GEFSNGP_500_meanwind_306.txt.gz
Wind_Speed
23 23 22 21 20 20 20 20 19 18 18 18 18 17 17 16 15 14 13 14 14 14 15 15 16 16 17 17 17 17 17 17 17 17 18 18 18 18 19 20 20 21 21 21
23 23 23 23 22 22 22 22 21 20 20 20 19 19 19 18 17 17 16 16 17 17 17 17 18 18 19 18 19 18 19 19 19 19 20 20 21 21 22 22 22 22 22 23
23 23 23 24 24 24 23 23 22 22 21 22 22 21 21 20 19 19 19 19 18 18 19 19 20 20 21 20 21 21 21 22 22 21 22 23 23 23 24 24 23 23 23 24
23 23 24 24 24 24 24 24 23 23 23 23 23 23 23 22 22 22 21 21 21 20 20 21 22 22 22 22 23 23 23 24 24 24 25 25 25 25 24 24 24 24 25 25
24 24 24 25 24 24 24 25 24 25 25 24 24 24 25 24 24 24 23 23 23 22 22 23 23 24 24 24 24 25 25 25 25 25 26 26 26 26 26 26 26 26 26 26
26 25 23 24 23 23 24 26 25 25 26 25 25 26 26 26 26 26 25 25 25 25 25 26 26 26 26 26 26 26 27 27 27 27 27 28 27 27 27 28 28 27 27 27
26 26 25 26 25 24 24 26 26 26 26 26 26 27 27 27 28 27 27 27 27 27 27 28 28 28 27 27 28 28 29 29 30 29 29 29 29 29 29 29 29 29 28 28
28 27 27 28 28 27 27 27 27 27 27 27 28 27 27 27 27 28 27 27 27 28 29 29 29 29 29 29 29 30 30 31 31 31 31 31 31 31 31 30 29 29 29 29
30 30 30 31 30 29 29 28 28 27 28 28 28 28 28 28 27 28 28 28 28 29 30 30 30 30 31 31 31 31 31 32 32 33 32 32 32 32 31 31 30 29 29 30
30 30 30 30 30 30 30 29 29 28 29 29 29 28 28 28 28 29 29 29 30 30 31 31 31 31 32 32 32 32 32 33 33 33 33 32 32 32 31 31 31 31 31 31
30 29 30 29 29 30 30 30 31 30 30 29 29 29 29 28 29 29 30 30 31 31 32 32 32 32 33 33 32 31 31 32 32 33 32 32 32 32 31 31 32 32 32 32
30 29 30 30 30 31 31 31 31 31 31 30 30 30 30 29 30 30 31 32 32 32 33 33 33 33 33 33 32 32 32 32 32 32 32 32 32 32 32 33 32 32 32 32
31 31 31 31 31 31 32 32 32 32 31 31 31 31 31 30 30 31 31 32 32 33 34 35 35 34 34 34 33 33 34 33 33 33 33 33 33 33 33 33 33 33 33 33
32 32 32 31 32 32 32 32 32 32 32 32 32 32 32 32 31 31 32 33 34 34 34 35 34 34 35 34 34 34 34 34 33 32 32 33 33 33 33 33 33 33 33 33
32 32 32 31 31 31 31 32 32 32 32 32 33 33 32 32 32 32 33 33 34 34 33 34 34 34 33 34 34 34 33 33 33 32 32 33 33 33 34 34 34 34 34 34
31 31 31 30 30 30 31 31 31 30 31 31 31 31 32 32 33 33 33 33 33 32 32 32 32 32 31 32 33 33 33 33 33 33 33 34 34 33 33 33 33 33 33 33
29 29 29 30 30 30 30 30 30 30 30 31 31 32 32 32 32 33 33 33 33 33 33 32 32 32 32 32 33 33 33 34 33 34 34 34 34 33 33 32 32 32 31 31
27 27 28 29 29 29 29 30 30 30 29 30 31 31 32 33 32 31 31 31 31 32 32 33 33 33 33 34 34 34 34 34 34 34 34 33 33 32 32 32 31 31 31 30
26 26 26 26 27 28 29 30 30 30 30 30 30 31 31 32 33 32 32 32 32 32 31 32 33 34 35 35 35 35 34 34 34 34 33 32 32 32 31 31 31 30 30 29
24 24 25 25 26 27 28 29 29 29 29 29 29 30 30 30 30 30 31 31 32 32 32 32 33 33 33 33 33 33 33 33 32 32 31 30 31 31 30 30 29 28 27 26
23 23 24 25 25 26 27 28 29 29 29 28 28 28 28 29 30 30 30 31 31 31 31 32 32 32 32 31 31 31 30 31 31 30 29 29 29 28 28 27 27 26 26 26
21 21 22 23 24 24 25 27 27 27 28 27 27 27 27 28 30 31 30 31 30 31 31 31 31 31 30 30 30 30 29 29 28 28 27 27 26 26 26 26 26 26 26 26
20 20 20 21 21 22 23 24 25 25 26 27 27 27 27 27 28 29 30 30 30 30 30 30 31 31 31 30 30 30 29 28 27 26 26 25 25 25 25 25 25 26 26 26
18 19 19 19 19 20 21 21 22 22 22 24 24 25 25 25 25 26 28 28 29 29 30 30 30 30 30 29 29 28 28 27 26 26 25 25 24 24 25 25 26 26 26 26
18 18 18 18 19 19 20 20 20 21 21 22 22 23 23 23 23 24 25 26 27 27 27 28 28 28 28 28 27 26 26 26 26 26 26 26 26 25 25 26 26 25 26 26
17 17 18 18 19 19 19 19 19 20 20 20 20 21 21 21 22 23 23 24 25 24 25 26 26 25 25 26 25 25 25 25 25 25 26 26 25 25 25 25 25 25 26 25
17 17 18 18 19 18 18 18 18 19 19 19 19 20 20 20 21 22 22 23 23 23 23 24 23 24 24 24 24 24 25 25 25 25 25 24 24 24 24 25 25 25 25 25